User: anonymous   Login
Location: Muenchen
(48.1800°N, 11.5800°E)
Time: 23:15:14
(UTC+01:00)
Language:

Iridium 73 - Orbit

View from above orbital plane
View from above orbital plane
View from above satellite
View from above satellite

Ground track
Ground track

The orbit data is extracted from the following two-line orbital elements,

1 25344U 98032C   14327.31200935  .00000670  00000-0  17349-3 0  9204
2 25344 086.4452 238.7177 0001669 087.8100 031.6865 14.48480933871908
Epoch (UTC): 23 November 2014 07:29:17
Eccentricity: 0.0001669
inclination: 86.4452°
perigee height: 729 km
apogee height: 732 km
right ascension of ascending node: 238.7177°
argument of perigee: 87.8100°
revolutions per day: 14.48480933
mean anomaly at epoch: 31.6865°
orbit number at epoch: 87190

The dashed part of the orbit path shows where the satellite is in the earth's shadow,  

DLR